CDT,Max TemperatureF,Mean TemperatureF,Min TemperatureF,Max Dew PointF,MeanDew PointF,Min DewpointF,Max Humidity, Mean Humidity, Min Humidity, Max Sea Level PressureIn, Mean Sea Level PressureIn, Min Sea Level PressureIn, Max VisibilityMiles, Mean VisibilityMiles, Min VisibilityMiles, Max Wind SpeedMPH, Mean Wind SpeedMPH, Max Gust SpeedMPH,PrecipitationIn, CloudCover, Events, WindDirDegrees
2013-4-1,33,27,21,21,17,14,80,65,48,30.25,30.19,30.06,10,10,10,20,16,29,0.00,2,,319
2013-4-2,35,29,23,23,20,18,93,69,48,30.34,30.30,30.25,10,10,10,20,9,25,0.00,0,,325
2013-4-3,42,32,23,27,22,16,93,65,42,30.42,30.33,30.22,10,10,9,16,5,22,0.00,0,,172
2013-4-4,53,42,32,37,30,21,81,64,47,30.20,30.10,30.03,10,10,4,16,12,25,0.00,1,Rain,272
2013-4-5,48,38,28,30,27,23,93,62,46,30.22,30.11,29.90,10,10,10,20,11,26,0.00,3,,91
2013-4-6,60,48,37,50,37,25,94,71,51,29.89,29.68,29.52,10,8,2,29,18,36,0.07,5,Rain,186
2013-4-7,53,43,33,43,37,32,93,77,58,29.97,29.85,29.71,10,8,3,18,11,31,0.00,6,,48
2013-4-8,60,52,44,54,47,41,100,85,67,29.92,29.75,29.64,10,5,0,21,10,26,0.62,6,Fog-Rain,60
2013-4-9,44,42,39,41,38,36,100,90,81,30.01,29.88,29.80,10,5,1,28,19,38,2.13,7,Rain,50
2013-4-10,37,34,32,36,32,30,100,91,87,30.05,29.91,29.77,10,7,1,37,18,45,0.55,8,Rain,59
2013-4-11,41,37,33,39,35,32,100,93,87,29.77,29.62,29.53,10,3,1,20,13,25,0.33,8,Rain-Snow,72
2013-4-12,35,32,30,34,29,25,100,84,75,29.86,29.70,29.54,10,8,1,20,12,25,0.00,8,Rain-Snow,314
2013-4-13,41,36,30,32,27,25,87,73,57,29.95,29.90,29.86,10,10,10,17,12,25,0.00,8,Snow,292
2013-4-14,53,43,33,52,38,28,100,88,71,29.91,29.65,29.44,10,6,1,28,17,36,1.37,7,Rain-Snow,109
2013-4-15,44,38,33,39,31,27,81,71,61,30.03,29.81,29.62,10,10,10,25,12,36,0.00,4,,264
2013-4-16,48,40,32,34,30,27,87,72,54,30.27,30.17,30.03,10,10,10,17,9,20,0.00,3,,339
2013-4-17,41,39,37,39,35,30,100,83,65,30.25,30.04,29.73,10,8,2,33,14,39,0.50,8,Rain,66
2013-4-18,39,36,32,37,35,28,100,93,87,29.73,29.57,29.43,10,6,1,29,16,34,0.23,8,Rain-Snow,353
2013-4-19,35,32,30,30,27,25,93,81,70,30.00,29.70,29.51,10,10,7,28,20,37,0.00,7,Rain-Snow,297
2013-4-20,42,34,26,27,22,14,86,61,31,30.30,30.20,30.01,10,10,10,12,8,14,0.00,1,,326
2013-4-21,57,45,33,48,39,25,94,75,56,30.30,30.19,30.07,10,9,3,25,15,32,0.22,6,Rain-Snow,156
2013-4-22,57,47,37,48,45,34,94,86,67,30.16,30.06,29.91,10,8,3,21,10,22,0.27,7,Rain,164
2013-4-23,39,36,32,34,29,25,93,78,60,30.10,30.06,30.00,10,10,10,25,18,32,0.00,6,,336
2013-4-24,51,40,28,37,29,25,93,70,35,30.10,30.05,29.95,10,10,5,23,10,34,0.01,2,Rain,265
2013-4-25,53,42,30,34,27,18,93,60,28,30.26,30.17,30.05,10,10,10,21,12,28,0.00,1,,259
2013-4-26,69,55,41,48,40,32,82,57,37,30.19,30.11,30.07,10,10,10,24,15,34,0.00,2,,190
2013-4-27,68,56,44,48,46,43,93,70,46,30.20,30.10,30.00,10,10,5,17,10,21,0.00,0,,181
2013-4-28,73,58,42,48,45,41,93,64,38,30.00,29.86,29.74,10,10,5,20,9,28,0.00,0,,193
2013-4-29,71,62,53,57,53,48,94,74,57,29.82,29.73,29.59,10,10,5,17,8,20,0.06,4,Rain,142
2013-4-30,77,64,51,57,53,46,88,63,36,29.94,29.69,29.53,10,10,2,26,15,34,0.19,3,Rain,235